Terminal Aerodrome Forecast
Issued by NWS Sterling, VA

Current Version | Previous Version | Graphics & Text | Print | Product List | Glossary On
Versions: 1 2 3 4 5 6 7 8 9 10 11 12 13 14 15 16 17 18 19 20 21 22 23 24
558
FTUS41 KLWX 280532
TAFIAD
TAF
KIAD 280532Z 2806/2912 00000KT 1SM BR BKN005
     FM281400 08006KT 3SM BR BKN015
     FM281500 09006KT P6SM BKN015
     FM281800 11007KT P6SM SHRA BKN025
     FM282200 11007KT 3SM SHRA BR OVC008=

USA.gov is the U.S. government's official web portal to all federal, state and local government web resources and services.